Phillipsburg, Missouri
Current Conditions -  °F | °C
As of 3:15 AM on Friday 24 Oct 2014 (Local Time) from KH21 Reporting Station
Overcast Overcast  
Wind Chill: 57°   Ceiling: 600
Heat Index: 57°   Visibility: 7mi
Dew Point: 55°   Wind: 7mph
Humidity: 94%   Direction: 240°WSW
Pressure: 30.11"   Gusts: NA
Location:  37.55°N, 92.78°W
Report Text: KH21 240815Z AUTO 24006KT 7SM OVC006 14/13 A3011 RMK AO2
Loading
Personal Weather Stations






























Interactive Weather Map
Tropical Storm Tracking
New forecast layout! Learn more

10-Day Weather Forecast

Advertisements
Track Severe Weather on mobile